Weather History for Lakeland Region, FL

Change the Weather History Date:

Tuesday, October 15, 2013

  Actual Average Record
Temperature  
Mean Temperature 71 °F -  
Max Temperature 78 °F 81 °F 91 °F (2009)
Min Temperature 64 °F 64 °F 54 °F (1987)
Cooling Degree Days 6    
Growing Degree Days 21 (Base 50)    
Moisture  
Dew Point 66 °F    
Average Humidity 91    
Maximum Humidity 100    
Minimum Humidity 65    
Precipitation  
Precipitation 0.00 in - - ()
Sea Level Pressure  
Sea Level Pressure 29.98 in    
Wind  
Wind Speed 4 mph (North)    
Max Wind Speed 8 mph    
Max Gust Speed -    
Visibility 8 miles    
Events Fog    
Averages and records for this station are not official NWS values.
T = Trace of Precipitation, MM = Missing Value Source: NWS Daily Summary

Daily Weather History Graph

Daily Weather History Graph

Search for Another Location

Airport:

Trip Planner

Search our weather history database for the weather conditions in past years. The results will help you decide how hot, cold, wet, or windy it might be!

Date:

Astronomy

Oct. 15, 2013 Rise Set
Actual Time 7:28 AM EDT 6:58 PM EDT
Civil Twilight 7:04 AM EDT 7:22 PM EDT
Nautical Twilight 6:37 AM EDT 7:49 PM EDT
Astronomical Twilight 6:10 AM EDT 8:16 PM EDT
Moon 4:49 PM EDT (10/15) 4:06 AM EDT (10/15)
Length of Visible Light 12h 17m
Length of Day
11h 29m
Waxing Gibbous, 87% of the Moon is Illuminated
Oct 15
Waxing Gibbous
Oct 18
Full
Oct 26
Last Quarter
Nov 3
New
Nov 10
First Quarter

Hourly Weather History & Observations

Time (EDT) Temp. Dew Point Humidity Pressure Visibility Wind Dir Wind Speed Gust Speed Precip Events Conditions
12:15 AM 68.0 °F 64.4 °F 88% 30.02 in 10.0 mi North 3.5 mph - N/A   Mostly Cloudy
12:35 AM 68.0 °F 64.4 °F 88% 30.02 in 10.0 mi NNE 4.6 mph - N/A   Clear
12:55 AM 68.0 °F 64.4 °F 88% 30.01 in 10.0 mi North 4.6 mph - N/A   Clear
1:15 AM 68.0 °F 64.4 °F 88% 30.00 in 10.0 mi North 4.6 mph - N/A   Clear
1:35 AM 68.0 °F 64.4 °F 88% 30.00 in 10.0 mi North 4.6 mph - N/A   Clear
1:55 AM 68.0 °F 64.4 °F 88% 30.00 in 10.0 mi North 5.8 mph - N/A   Clear
2:15 AM 66.2 °F 64.4 °F 94% 29.99 in 10.0 mi North 4.6 mph - N/A   Clear
2:35 AM 66.2 °F 64.4 °F 94% 29.98 in 10.0 mi NNE 4.6 mph - N/A   Clear
2:55 AM 66.2 °F 64.4 °F 94% 29.98 in 10.0 mi North 3.5 mph - N/A   Clear
3:15 AM 66.2 °F 64.4 °F 94% 29.97 in 10.0 mi Calm Calm - N/A   Clear
3:35 AM 66.2 °F 64.4 °F 94% 29.97 in 10.0 mi Calm Calm - N/A   Clear
3:55 AM 66.2 °F 64.4 °F 94% 29.97 in 10.0 mi Calm Calm - N/A   Clear
4:15 AM 64.4 °F 64.4 °F 100% 29.97 in 10.0 mi North 3.5 mph - N/A   Clear
4:35 AM 64.4 °F 64.4 °F 100% 29.97 in 10.0 mi Calm Calm - N/A   Clear
4:55 AM 64.4 °F 64.4 °F 100% 29.98 in 7.0 mi Calm Calm - N/A   Clear
5:15 AM 64.4 °F 62.6 °F 94% 29.97 in 7.0 mi NNW 3.5 mph - N/A   Clear
5:35 AM 64.4 °F 62.6 °F 94% 29.97 in 5.0 mi North 4.6 mph - N/A   Clear
5:50 AM 64.4 °F 64.4 °F 100% 29.98 in 5.0 mi North 5.8 mph - N/A   Clear
5:55 AM 64.4 °F 64.4 °F 100% 29.98 in 5.0 mi North 5.8 mph - N/A   Clear
6:15 AM 64.4 °F 62.6 °F 94% 29.98 in 5.0 mi North 4.6 mph - N/A   Scattered Clouds
6:35 AM 64.4 °F 64.4 °F 100% 29.98 in 5.0 mi North 3.5 mph - N/A   Mostly Cloudy
6:50 AM 66.2 °F 64.4 °F 94% 29.99 in 3.0 mi North 4.6 mph - N/A   Mostly Cloudy
7:50 AM 66.2 °F 66.2 °F 100% 29.99 in 0.5 mi North 5.8 mph - N/A Fog Fog
8:50 AM 66.2 °F 66.2 °F 100% 30.01 in 0.5 mi North 4.6 mph - N/A Fog Fog
9:50 AM 68.0 °F 66.2 °F 94% 30.02 in 1.0 mi North 4.6 mph - N/A   Overcast
10:50 AM 68.0 °F 68.0 °F 100% 30.02 in 3.0 mi North 4.6 mph - N/A   Overcast
11:50 AM 71.6 °F 68.0 °F 88% 30.01 in 5.0 mi WNW 3.5 mph - N/A   Overcast
12:50 PM 73.4 °F 69.8 °F 88% 29.99 in 8.0 mi Calm Calm - N/A   Overcast
1:28 PM 75.2 °F 69.8 °F 83% 29.98 in 8.0 mi North 6.9 mph - N/A   Overcast
1:50 PM 75.2 °F 69.8 °F 83% 29.96 in 10.0 mi North 6.9 mph - N/A   Overcast
2:52 PM 75.2 °F 66.2 °F 73% 29.95 in 12.0 mi NNE 4.6 mph - N/A   Overcast
3:50 PM 75.2 °F 68.0 °F 78% 29.94 in 15.0 mi North 8.1 mph - N/A   Overcast
4:50 PM 78.8 °F 66.2 °F 65% 29.93 in 15.0 mi NNW 4.6 mph - N/A   Mostly Cloudy
6:50 PM 75.2 °F 66.2 °F 73% 29.94 in 15.0 mi North 6.9 mph - N/A   Mostly Cloudy
7:54 PM 71.6 °F 68.0 °F 88% 29.95 in 15.0 mi North 5.8 mph - N/A   Mostly Cloudy
8:55 PM 71.6 °F 68.0 °F 88% 29.98 in 15.0 mi North 6.9 mph - N/A   Mostly Cloudy
9:55 PM 69.8 °F 68.0 °F 94% 29.99 in 10.0 mi North 4.6 mph - N/A   Mostly Cloudy
10:55 PM 69.8 °F 68.0 °F 94% 29.99 in 7.0 mi North 4.6 mph - N/A   Overcast
11:15 PM 69.8 °F 68.0 °F 94% 29.99 in 5.0 mi North 5.8 mph - N/A   Overcast
11:35 PM 69.8 °F 68.0 °F 94% 29.99 in 5.0 mi North 6.9 mph - N/A   Overcast
11:55 PM 69.8 °F 68.0 °F 94% 29.98 in 5.0 mi North 6.9 mph - N/A   Overcast